Weather in Altai

Kazakhstan     50°12′33″N   82°23′55″E
В апреле 2022 года жителям России запретили посещать сайт meteo.paraplan.net по решению Генеральной прокуратуры. Аудитория сайта уменьшилась в 10 раз. Владельцы сайта не видят смысла в поддержке погодного сервера в таких условиях. Сайт будет закрыт в октябре.
temp.,
°C
wind,
m/s
gust,
m/s
humid.,
%
clouds,
%
prec.,
mm/h
press.,
hPa
HPBL,
m
5 october, wed
wed500:00+1ne11680 0.0 103210
03:000ne11710 0.0 103310
06:00−1n11775 0.0 103510
09:00+3wsw115944 0.0 1035268
12:00+9wnw333516 0.0 1034851
15:00+12nnw552068 0.0 10331201
18:00+8nnw4732100 0.0 1034248
21:00+7nw2437100 0.0 1035223
6 october, thu
thu600:00+4nnw114833 0.0 103510
03:00+3n115593 0.0 103510
06:00+5sse0051100 0.0 103437
09:00+7ssw1146100 0.0 1034216
12:00+10wnw2239100 0.0 1032567
15:00+10nnw2241100 0.1 1031686
18:00+9ne114734 0.1 103110
21:00+5ene116227 0.0 103210
7 october, fri
fri700:00+4ne22695 0.0 103110
03:00+2ene227712 0.0 103110
06:00+2ene118024 0.0 103110
09:00+7e115786 0.0 1030202
12:00+12wnw113295 0.0 1027682
15:00+15nnw222273 0.0 1025939
18:00+10n1129100 0.0 102410
21:00+8ene11345 0.0 102410
8 october, sat
sat800:00+7e114672 0.0 102410
03:00+6e226255 0.0 102310
06:00+5e22685 0.0 102210
09:00+11se24405 0.0 1021237
12:00+18sse78210 0.0 1019964
15:00+21sse79160 0.0 10161820
18:00+14se510270 0.0 1017177
21:00+12se513310 0.0 1017251
9 october, sun
sun900:00+10se34371 0.0 101748
03:00+9se333847 0.0 101636
06:00+11sse41233100 0.0 1016270
09:00+15ssw61325100 0.0 10171109
12:00+16wsw8122450 0.0 10171681
15:00+16w79260 0.0 10171631
18:00+11w59420 0.0 1020198
21:00+7wnw34595 0.0 102482